RADUGA 27 [-]

Last updated on Jan. 28, 2020, 4:41 a.m. UTC

1 21132U 91014A   20026.99931539  .00000118  00000-0  00000-0 0  9992
2 21132  15.3034 356.4921 0005669   1.9890 155.0071  1.00323267105919
UTC
Height (km)
Latitude
Longitude
Inclination
Orbital Period
UTC large
Height (km)
Speed (km/s)
/
Latitude / Longitude
Inclination (degrees)
Orbital Period (minutes)
Azimuth
Elevation
Range (km)
Doppler Factor
iOS Compass Heading
iOS Angle

Next 30 passes for location: Hong Kong

Rise time Rise Azimuth (degrees) Set time Set Azimuth (degrees) Duration Max altitude (degrees)

No matching passes for this satellites